sat.trackr.live / text

‹ back to catalog

STARLINK-2228

NORAD 48576 · 2021-041Z

PAYLOAD ACTIVE UNKNOWN

§ Identity

Operator
Country
US
Launch date
2021-05-15
Launch site
AFETR
Launch vehicle
Mass (kg)
RCS (m²)

Purposes: comms

External: N2YO · Heavens-Above · Gunter

§ Orbital elements

Epoch: 2026-05-25T04:36:10.673280Z

Period
94.01 min
Inclination
53.1574°
Eccentricity
0.0001393
Mean motion
15.31701645 rev/d
Perigee alt
469.8 km
Apogee alt
471.7 km
Semi-major
6,848.9 km
B*
2.5899e-4
RAAN
105.2507°
Arg perigee
75.5433°
Mean anomaly
284.5723°
Rev number
27,736

§ Raw data

STARLINK-22281 48576U 21041Z   26145.19179020  .00007680  00000+0  25899-3 0  99912 48576  53.1574 105.2507 0001393  75.5433 284.5723 15.31701645277369

JSON: /api/v1/satellites/48576 · /tle

For live sub-satellite position, see the globe view (requires WebGL).

§ Visibility from observer

Set your observer location to see the next 7 days of passes ≥ 10°. The values pass through the URL so the page stays shareable.

No JS? Fill the form by hand. The geolocation button needs JavaScript.